Preview of NWS' New Version of Forecast
This preview is not operational and should not be used for support decisions.

Regional Weather Roundup (RWR)

Issued by Gray - Portland, ME (GYX)

                            
000
ASUS41 KGYX 200710
RWRGYX
WEATHER ROUNDUP FOR MAINE AND NEW HAMPSHIRE
NATIONAL WEATHER SERVICE GRAY ME
200 AM EST WED FEB 20 2019

MEZ002-005-006-010-012-015-018-020-021-024-026-027-029-200800-
MAINE
  
CITY           SKY/WX    TMP DP  RH WIND       PRES   REMARKS
PORTLAND       FAIR       6  -3  66 CALM      30.55R                  
SANFORD        FAIR       2  -5  72 SW3       30.53S                  
BAR HARBOR     FAIR       8  -4  58 W3        30.51R                  
WISCASSET      FAIR      -1  -5  82 CALM      30.56R                  
ROCKLAND       FAIR       5  -2  72 CALM      30.54R                  
FRYEBURG       FAIR      -4 -12  68 CALM      30.49S                  
LEWISTONAUBURN FAIR      14  -2  49 W6        30.52R                  
AUGUSTA        FAIR       8  -7  50 SW5       30.51R                  
WATERVILLE     FAIR       5  -7  57 CALM      30.48R                  
BANGOR         FAIR       4  -8  57 W3        30.50R                  
GREENVILLE       N/A      3 -13  47 NW12G21   30.33R WCI -13          
MILLINOCKET    FAIR       4  -6  63 W7        30.46R                  
HOULTON        NOT AVBL                                               
PRESQUE ISLE   FAIR     -16 -21  78 CALM      30.38R                  
FRENCHVILLE    FAIR       1 -11  57 W16       30.30R WCI -19          
CARIBOU        FAIR      -5 -14  65 W5        30.35R                  
$$

NHZ002-005-008-009-011-012-014-200800-
NEW HAMPSHIRE
  
CITY           SKY/WX    TMP DP  RH WIND       PRES   REMARKS
PORTSMOUTH     PTCLDY    16  -4  40 W8        30.54R                  
ROCHESTER      FAIR      13  -3  49 VRB3      30.52S                  
NASHUA         FAIR       7  -2  66 CALM      30.58R                  
MANCHESTER     FAIR      15   2  56 CALM      30.55R                  
CONCORD        FAIR       6  -2  69 CALM      30.55R                  
LACONIA        FAIR       7  -4  60 SW6       30.52R                  
PLYMOUTH       FAIR      11  -5  49 W7        30.52S                  
BERLIN         FAIR      11  -3  53 SE6       30.45R                  
WHITEFIELD     FAIR      -8 -14  74 CALM      30.49R                  
JAFFREY        FAIR      16   3  56 VRB6      30.50R                  
KEENE          FAIR       4   1  88 S5        30.56R                  
LEBANON        FAIR      -2  -9  72 CALM      30.55R                  
MT WASHINGTON  FOG       -9  -9 100 NW75G83     N/A  VSB 1/16WCI -49  
$$

VTZ005-007-008-200800-
VERMONT
  
CITY           SKY/WX    TMP DP  RH WIND       PRES   REMARKS
ST JOHNSBURY     N/A     -5  -9  83 MISG      30.53S                  
MONTPELIER     FAIR       1  -4  79 W5        30.53R                  
BURLINGTON     FAIR       0  -6  76 CALM      30.57F                  
$$

MAZ007-012-024-CTZ003-RIZ002-NYZ038-NYZ072-200800-
SOUTHERN NEW ENGLAND AND NY
  
CITY           SKY/WX    TMP DP  RH WIND       PRES   REMARKS
BOSTON         FAIR      22   3  44 W9        30.58R                  
WORCESTER      FAIR      11   1  64 W7        30.51R                  
NANTUCKET      FAIR      25   8  48 NW14      30.55R WCI  13          
PROVIDENCE     FAIR      20   5  52 NW7       30.59R                  
HARTFORD       CLOUDY    17   6  62 W6        30.59R                  
ALBANY         MOCLDY    11   3  70 CALM      30.61S                  
NEW YORK CITY  CLOUDY    28   5  37 N5        30.60S                  
$$

ANZ081-ANZ082-ANZ150-NHZ014-MEZ023>029-200800-
COASTAL MARINE OBSERVATIONS
  
STATION/POSITION TIME  TEMP    WIND        PRES    WAVE
                       AIR SEA DIR/SP/G            HT/PER
                 (UTC) (F)     (DEG/KT/KT) (MB)    (FT/S)
MOUNT DESERT ROC 0700   17     290/ 24/ 30 1033.3R
MATINICUS ROCK   0600   18     320/ 25/ 28 1032.8R
ISLE OF SHOALS   0600   21     290/ 19/ 21 1033.7R
JEFFREYS LEDGE   0638      40                N/A     5/ 5
CASHES LEDGE BUO 0650   22 39              1033.6R   5/ 5
$$

.............KEY..............
   WCI - WIND CHILL
   TC  - TEMPERATURE IN CELSIUS
   VSB - VISIBILITY IN MILES
   HX  - HEAT INDEX
   FAIR- INDICATES FEW OR NO CLOUDS BELOW 12,000 FT, WITH NO 
         SIGNIFICANT WEATHER AND/OR OBSTRUCTIONS TO VISIBILITY.